Regional Weather Roundup
Issued by NWS

Home | Current Version | Previous Version | Text Only | Print | Product List | Glossary On
Versions: 1 2 3 4 5 6 7 8 9 10 11 12 13 14 15 16 17 18 19 20 21 22 23 24 25 26 27 28 29 30 31 32 33 34 35 36 37 38 39 40 41 42 43 44 45 46 47 48 49 50
000
ASUS43 KDTX 231110
RWRMI
MICHIGAN HOURLY REGIONAL WEATHER ROUNDUP
NATIONAL WEATHER SERVICE DETROIT/PONTIAC MI
700 AM EDT THU MAR 23 2017

NOTE: "FAIR" INDICATES FEW OR NO CLOUDS BELOW 12,000 FEET WITH NO
SIGNIFICANT WEATHER AND/OR OBSTRUCTION TO VISIBILITY.

MIZ047>049-052>055-059>063-066>070-074>076-081>083-231200-
SOUTHEAST LOWER MICHIGAN

CITY           SKY/WX    TMP DP  RH WIND       PRES   REMARKS
ADRIAN         CLOUDY    22  16  78 CALM      30.53R
ALMA           CLOUDY    24  19  81 S5        30.51S WCI  19
ANN ARBOR      CLEAR     20  16  84 CALM      30.52R
BAD AXE        CLOUDY    20  16  83 S3        30.54R
CARO           CLOUDY    18  16  90 CALM      30.52S
DETROIT CITY   CLEAR     22  14  71 CALM      30.54R
DETROIT        PTCLDY    25  16  68 E3        30.54R
FLINT          CLEAR     22  16  78 S3        30.52R
GROSSE ILE     CLEAR     24  16  71 E3        30.53R
HILLSDALE      CLOUDY    21  14  73 SE6       30.48R WCI  14
HOWELL         CLEAR     21  16  81 S3        30.51R

CITY           SKY/WX    TMP DP  RH WIND       PRES   REMARKS
JACKSON        CLOUDY    22  14  71 E5        30.50R WCI  16
LAMBERTVILLE   CLOUDY    21  17  85 CALM      30.53R
LANSING        CLOUDY    22  14  71 S6        30.51R WCI  14
LAPEER         FAIR      17  16  94 CALM      30.52S
MASON          CLOUDY    22  19  86 SE3       30.51S
MONROE         CLEAR     26  18  71 SE6       30.52R WCI  20
MT. CLEMENS    CLOUDY    20  17  90 CALM      30.53R
PONTIAC        PTCLDY    22  14  71 S3        30.50R
PORT HOPE        N/A     21  17  84 CALM      30.53R
PORT HURON     CLEAR     16  12  86 CALM      30.55R
TRI CITIES     CLOUDY    25  18  74 S7        30.53R WCI  17
MIDLAND        FAIR      25  17  70 S5        30.52R WCI  19
TROY           CLEAR     23  13  65 CALM      30.55R
SAGINAW HB     CLOUDY    23  16  74 S3        30.53R
$$
MIZ043>046-050>051-056>058-064>065-071>073-077>080-231200-
SOUTHWEST LOWER MICHIGAN

CITY           SKY/WX    TMP DP  RH WIND       PRES   REMARKS
BATTLE CREEK   CLOUDY    24  15  68 SE6       30.49R WCI  17
BENTON HARBOR  PTCLDY    25  16  68 E7        30.46S WCI  17
BIG RAPIDS     CLOUDY    18  15  88 CALM      30.47R
COLDWATER      CLOUDY    24  15  69 SE8       30.48S WCI  15
FREMONT        FAIR      25  12  59 SE3       30.48R
HOLLAND        CLOUDY    24  15  68 SE6       30.49R WCI  17
GRAND RAPIDS   CLOUDY    24  14  65 SE5       30.49R WCI  18
IONIA          FAIR      23  17  78 SE7       30.49S WCI  15
KALAMAZOO      PTCLDY    25  14  63 SE5       30.49R WCI  19
LUDINGTON      PTCLDY    26  16  65 SE6       30.45S WCI  20
MARSHALL       CLOUDY    23  15  71 SE5       30.49R WCI  17
MOUNT PLEASANT CLOUDY    20  16  86 CALM      30.49S
MUSKEGON       CLOUDY    25  16  68 SE7       30.48R WCI  17
SOUTH HAVEN    CLOUDY    25  18  74 SE6       30.47S WCI  18
$$
MIZ016>042-231200-
NORTHERN LOWER MICHIGAN

CITY           SKY/WX    TMP DP  RH WIND       PRES   REMARKS
ALPENA         CLOUDY    15  12  88 CALM      30.51R
BEAVER ISLAND  CLEAR     22  16  79 SE3       30.45F
BELLAIRE       PTCLDY    19  15  85 CALM      30.48S
CADILLAC       CLOUDY    14  10  82 CALM      30.43R
CHARLEVOIX     CLEAR     21  13  70 E5        30.49S WCI  15
FRANKFORT      PTCLDY    26  13  57 E3        30.46S
GAYLORD        CLOUDY    22  10  60 CALM      30.44R
GRAYLING       CLOUDY    16  10  79 CALM      30.46S
HARBOR SPRINGS CLOUDY    16  13  88 NE6       30.47S WCI   8
HOUGHTON LAKE  CLOUDY    19  14  81 E3        30.46S
MANISTEE       CLOUDY    20  18  92 E6        30.46S WCI  12
OSCODA         CLOUDY    15  11  82 CALM      30.51S
PELLSTON       CLOUDY    16  10  77 CALM      30.48R
ROGERS CITY    PTCLDY    20  15  79 S5        30.50F WCI  14
TRAVERSE CITY  CLOUDY    23  11  60 CALM      30.46S
$$
MIZ007>008-015-231200-
EASTERN UPPER MICHIGAN

CITY           SKY/WX    TMP DP  RH WIND       PRES   REMARKS
KINROSS        CLOUDY    13   9  84 SE3       30.47S
MACKINAC ISLAN CLOUDY    22  12  63 S7        30.46S WCI  14
NEWBERRY       CLOUDY    20  16  83 CALM      30.43S
S. S. MARIE    CLOUDY    14   9  80 NE5       30.47F WCI   6
MUNISING         N/A     22  15  75 S6        30.40F WCI  14
$$
MIZ004>006-011>014-085-231200-
CENTRAL UPPER MICHIGAN

CITY           SKY/WX    TMP DP  RH WIND       PRES   REMARKS
MANISTIQUE     CLEAR     27  21  80 S7        30.43S WCI  19
ESCANABA       CLOUDY    22  20  92 CALM      30.43F
MENOMINEE        N/A    N/A N/A N/A MISG        N/A
SAWYER-GWINN   PTCLDY    21  18  86 S10       30.36F WCI  10
$$
MIZ001>003-009>011-084-231200-
WESTERN UPPER MICHIGAN

CITY           SKY/WX    TMP DP  RH WIND       PRES   REMARKS
IRON MOUNTAIN  CLOUDY    24  15  68 S7        30.35F WCI  16
HOUGHTON       CLOUDY    26  15  63 S7        30.29F WCI  18
COPPER HARBOR    N/A     30  18  60 SW7       30.31F WCI  23
IRONWOOD       CLOUDY    29  21  72 S8G16     30.26F WCI  21
$$

ABBREVIATIONS USED IN REMARKS
   TC - TEMPERATURE IN CELSIUS
  WCI - WIND CHILL INDEX
   HX - HEAT INDEX
  VSB - VISIBILITY





USA.gov is the U.S. government's official web portal to all federal, state and local government web resources and services.